EUTELSAT 8 WEST B

Last updated on Nov. 22, 2019, 4:19 a.m. UTC

1 40875U 15039B   19325.15831991 -.00000067  00000-0  00000+0 0  9992
2 40875   0.0693 351.2189 0002889 225.7468 251.9560  1.00270664 15622
UTC
Height (km)
Latitude
Longitude
Inclination
Orbital Period
UTC large
Height (km)
Speed (km/s)
/
Latitude / Longitude
Inclination (degrees)
Orbital Period (minutes)
Azimuth
Elevation
Range (km)
Doppler Factor
iOS Compass Heading
iOS Angle

Next 30 passes for location: Hong Kong

Rise time Rise Azimuth (degrees) Set time Set Azimuth (degrees) Duration Max altitude (degrees)

No matching passes for this satellites